ミュラー彗星

190P/Mueller (2007)

English version
Home page
Updated on April 6, 2008

---------------------------------------------------------------------

・ プロフィール

符号 190P/2007 O2
検出日 2007年7月26日
検出光度 19.5等
検出者 L. Buzzi and F. Luppi (Varese, Italy)

・ 写真集

・ 軌道要素

                    Epoch = 2007 June 29.0 TT
     T = 2007 July  8.20087 TT        Peri. =  49.73116
     e = 0.5206516                    Node  = 336.11998 2000.0
     q = 2.0319152 AU                 Incl. =   2.18993
       a =  4.2389107 AU   n = 0.11293347   P =   8.73 years

・ 光度変化

        m1 = 10.0 + 5 logΔ + 20.0 log r

---------------------------------------------------------------------

軌道要素は、 IAUC 8859 に掲載されたものです。
光度グラフはComet for Windowsで作成したものです。

---------------------------------------------------------------------

Copyright(C) Seiichi Yoshida (comet@aerith.net). All rights reserved.